Location: La Oliva
(42.2466°N, 2.9955°E)
Time: 08:09:27
(UTC+00:00)

Timation 2 Rocket - Pass Details

Date: 22 April 2021
Orbit: 907 x 1074 km, 70.0° (Epoch: 07 May)

Event Time Altitude Azimuth Distance (km) Brightness Sun altitude
Rises 20:16:16 0° 201° (SSW) 3,788 6.9 -17.1°
Reaches altitude 10° 20:18:54 10° 201° (SSW) 2,818 6.3 -17.5°
Maximum altitude 20:25:30 84° 114° (ESE) 1,010 4.0 -18.5°
Drops below altitude 10° 20:31:51 10° 27° (NNE) 2,716 6.5 -19.4°
Sets 20:34:20 0° 27° (NNE) 3,642 7.2 -19.8°
